Vorticity
-0 1 2 10 10 5 6 8 9 13 10 3 3 4 4 4 3 4 5 4 3 3 3 3 3 3 4 4 4 4 4 4 4 4 4 3 3 3 3 2 2 2 3 3 4 4 3 2 3
2 -1 8 8 5 4 9 11 11 9 1 2 4 4 4 3 5 3 3 3 3 4 4 3 3 4 4 5 5 5 5 5 5 5 5 5 4 4 3 3 2 2 3 4 4 4 4 4 4
5 6 8 5 4 5 8 14 7 4 4 5 5 4 4 4 4 3 3 3 3 3 3 4 4 5 4 4 4 4 4 4 4 5 4 4 5 6 5 5 5 6 7 6 7 6 5 5 6
8 10 7 4 7 8 13 8 6 5 4 3 4 4 4 3 4 3 4 3 3 3 4 4 5 5 6 6 6 6 6 6 5 5 6 6 7 8 8 9 11 10 10 12 11 11 11 11 11
8 9 4 5 9 8 14 6 5 5 7 4 5 5 4 3 3 3 3 3 3 3 4 5 4 4 4 4 4 4 5 5 7 8 8 10 11 10 9 9 8 8 8 8 8 8 9 9 9
3 6 4 4 10 10 12 3 7 8 3 4 5 4 3 1 2 2 2 3 4 4 3 2 4 4 3 3 5 8 10 10 11 10 11 10 7 7 6 5 5 4 4 3 2 2 2 2 2
5 6 5 5 11 11 8 5 6 6 3 5 2 1 1 2 2 2 2 1 3 4 3 4 5 3 3 5 8 10 12 13 11 8 6 5 4 4 5 5 6 7 6 6 6 5 4 3 3
4 3 4 10 8 12 5 4 5 4 4 3 3 3 2 2 1 2 2 3 3 2 3 3 2 3 6 8 10 10 12 8 5 2 2 2 3 3 3 2 2 2 1 2 2 3 4 5 5
4 5 6 11 10 9 3 3 6 3 2 2 2 3 2 2 3 4 3 3 3 4 5 2 3 3 7 12 12 13 10 5 2 1 2 3 3 4 4 4 2 2 4 5 7 7 6 6 4
3 4 9 9 11 6 2 3 4 5 3 0 2 3 3 2 2 2 2 3 4 4 2 3 2 7 12 11 13 12 5 2 1 1 1 2 4 5 2 1 6 10 11 11 13 14 13 12 12
4 3 10 7 9 5 5 6 3 3 4 3 0 2 1 2 2 2 2 4 3 5 3 -0 7 12 10 11 10 6 2 1 0 1 1 2 6 2 3 12 16 14 12 9 8 11 14 18 20
4 4 10 9 7 5 4 4 3 4 3 3 3 0 1 1 2 3 2 4 2 9 -4 10 10 7 6 7 7 4 3 1 1 1 2 7 1 4 16 17 10 7 12 15 14 16 11 6 8
6 5 11 9 5 3 5 3 1 2 2 2 2 2 1 2 2 2 2 3 12 -1 8 10 7 5 5 5 7 5 3 2 3 3 6 2 2 16 14 7 12 16 12 7 9 6 8 8 9
5 6 8 9 5 2 3 5 2 2 0 2 2 2 3 3 3 3 6 11 -2 8 9 5 4 6 7 7 8 8 6 5 5 5 7 0 12 14 10 15 17 6 10 14 13 13 13 12 13
5 8 7 8 5 2 4 5 3 4 2 0 1 2 3 3 3 5 7 3 -0 8 7 4 4 2 4 7 7 8 8 8 7 9 -1 6 15 13 19 15 2 10 8 6 11 17 19 17 10
5 8 7 7 5 2 4 5 3 3 3 2 3 3 3 3 4 4 8 -3 1 10 4 3 4 8 6 5 9 11 8 8 11 2 5 12 18 21 13 4 11 8 10 14 7 2 1 5 7
5 7 8 8 5 4 2 4 2 3 4 5 5 4 4 5 7 10 -1 2 2 5 6 6 8 4 12 15 26 32 21 13 13 6 10 19 18 9 2 11 7 10 8 4 4 4 5 6 7
6 9 8 7 6 5 4 4 3 3 3 3 3 3 5 7 3 3 5 3 -0 6 2 9 3 14 23 30 29 25 38 31 12 10 17 14 2 5 9 7 9 7 6 6 4 6 4 6 7
6 8 7 8 6 3 5 5 3 3 2 4 3 5 5 4 3 4 4 -2 9 6 11 0 16 17 20 17 13 12 13 29 23 16 10 4 4 8 8 7 5 5 5 5 8 7 7 8 8
7 7 8 7 7 6 5 5 6 5 3 7 6 5 4 6 4 0 2 8 4 9 7 14 13 18 15 11 12 13 16 16 25 5 4 3 5 5 7 4 6 4 5 4 8 6 8 7 5
8 7 7 8 6 7 7 7 7 9 9 7 8 -3 7 1 -1 7 8 3 9 6 0 18 13 11 9 8 11 15 13 7 6 5 4 6 7 6 4 5 3 9 8 11 11 10 9 1 3
7 8 9 8 8 10 6 8 8 5 6 0 3 2 3 3 12 9 6 11 6 3 21 9 10 6 1 -0 3 2 3 3 6 5 3 5 5 7 6 10 8 10 3 3 3 5 8 0 1
7 6 6 6 5 5 6 5 6 5 2 4 4 8 7 8 4 5 8 4 12 31 18 10 10 7 4 4 4 3 2 3 4 2 7 4 7 6 5 7 6 8 9 8 7 4 3 6 6
7 7 6 6 5 6 7 6 7 6 10 11 7 7 9 7 7 8 5 14 14 10 11 14 7 4 3 5 5 4 4 5 7 7 6 5 7 5 2 2 3 6 6 7 5 5 6 5 8
7 6 6 7 8 7 8 9 8 9 7 6 8 7 6 7 5 6 8 11 14 14 16 10 5 6 4 4 5 5 5 4 5 4 5 4 6 6 6 5 3 3 5 7 8 8 6 3 3
5 5 4 9 6 3 8 7 9 8 7 6 5 6 6 5 8 11 15 20 17 10 6 6 4 4 4 6 6 5 5 5 6 6 6 5 5 4 4 5 5 5 4 4 6 6 6 7 5
9 8 8 6 7 6 5 7 5 7 7 9 8 5 7 12 10 14 20 11 6 4 4 4 7 5 3 3 7 9 9 10 10 9 8 7 7 7 8 7 7 7 7 8 8 9 5 4 3
10 9 9 8 8 8 7 8 8 8 7 6 6 7 14 12 10 18 10 4 4 5 5 4 5 6 7 6 6 7 7 7 7 8 8 7 8 8 9 10 12 11 9 7 4 4 5 3 3
6 8 7 8 7 8 10 6 9 6 5 4 7 12 17 8 19 3 7 5 5 5 4 5 5 5 5 7 6 4 5 8 9 8 7 7 7 8 9 8 4 3 2 1 1 5 8 8 3
7 8 6 4 3 6 10 11 8 7 5 5 11 12 16 9 8 4 5 5 5 6 6 5 5 7 7 6 7 10 14 15 12 10 9 9 9 9 6 3 1 1 4 6 3 -1 0 4 4
Height
5870 5874 5876 5879 5882 5881 5883 5885 5887 5889 5890 5890 5892 5894 5896 5896 5897 5898 5897 5897 5897 5897 5896 5895 5895 5894 5893 5892 5891 5890 5889 5888 5887 5886 5885 5884 5882 5881 5880 5878 5877 5875 5874 5872 5871 5870 5868 5867 5866
5866 5870 5873 5875 5877 5877 5881 5883 5884 5887 5887 5889 5890 5892 5894 5895 5896 5895 5896 5896 5896 5896 5895 5895 5894 5893 5891 5890 5889 5888 5887 5885 5884 5883 5881 5880 5879 5877 5876 5875 5873 5872 5870 5869 5867 5866 5865 5863 5861
5862 5865 5869 5870 5872 5874 5880 5881 5882 5885 5886 5888 5890 5891 5893 5894 5895 5894 5895 5895 5895 5895 5894 5893 5892 5891 5890 5888 5887 5886 5884 5883 5881 5879 5878 5876 5875 5873 5871 5869 5868 5866 5865 5864 5862 5861 5859 5858 5857
5857 5861 5864 5866 5868 5872 5877 5878 5879 5883 5885 5886 5888 5890 5891 5892 5893 5892 5893 5894 5893 5893 5892 5891 5890 5889 5887 5886 5884 5883 5881 5879 5878 5876 5874 5872 5870 5868 5866 5864 5862 5860 5860 5858 5856 5855 5853 5852 5851
5851 5856 5859 5862 5865 5871 5874 5876 5878 5881 5884 5885 5887 5888 5890 5891 5892 5892 5892 5892 5892 5891 5890 5889 5887 5886 5885 5883 5881 5879 5877 5875 5873 5871 5869 5868 5866 5863 5862 5860 5858 5856 5855 5853 5852 5850 5849 5847 5846
5846 5851 5855 5857 5863 5868 5871 5874 5877 5880 5881 5884 5885 5887 5888 5890 5891 5891 5890 5890 5889 5889 5888 5887 5885 5883 5881 5880 5877 5875 5873 5871 5869 5867 5865 5863 5862 5860 5858 5857 5855 5853 5851 5849 5848 5846 5844 5842 5839
5843 5848 5852 5855 5861 5865 5869 5873 5876 5879 5880 5882 5883 5885 5887 5888 5889 5889 5889 5888 5887 5886 5885 5884 5882 5880 5877 5876 5873 5870 5869 5867 5865 5863 5861 5860 5858 5856 5854 5852 5850 5848 5846 5844 5842 5840 5837 5835 5833
5838 5844 5846 5851 5858 5862 5866 5872 5875 5878 5880 5881 5881 5883 5885 5885 5887 5887 5886 5885 5885 5883 5882 5880 5878 5876 5873 5870 5869 5866 5864 5863 5861 5859 5856 5855 5854 5852 5849 5847 5845 5842 5840 5837 5835 5832 5830 5828 5825
5834 5839 5842 5848 5855 5860 5864 5869 5871 5875 5878 5880 5880 5882 5883 5884 5884 5884 5883 5882 5881 5880 5878 5876 5874 5871 5868 5865 5863 5861 5859 5858 5856 5853 5852 5850 5848 5846 5844 5841 5839 5836 5833 5829 5826 5824 5821 5819 5817
5829 5834 5839 5846 5853 5857 5861 5865 5869 5874 5877 5879 5879 5880 5882 5882 5882 5882 5880 5879 5878 5876 5875 5872 5870 5867 5864 5861 5859 5857 5855 5853 5851 5849 5847 5844 5842 5839 5837 5834 5830 5826 5823 5820 5818 5815 5813 5810 5808
5825 5830 5835 5843 5849 5853 5859 5864 5867 5871 5874 5876 5877 5879 5879 5879 5880 5879 5877 5876 5874 5872 5871 5868 5865 5862 5859 5857 5854 5852 5850 5848 5846 5843 5840 5837 5835 5832 5828 5825 5821 5817 5815 5812 5810 5807 5805 5802 5800
5820 5825 5832 5840 5846 5850 5856 5859 5863 5866 5869 5871 5874 5876 5877 5876 5876 5876 5874 5872 5871 5868 5866 5863 5860 5857 5854 5852 5849 5846 5844 5842 5839 5837 5834 5830 5828 5824 5820 5816 5813 5810 5808 5805 5802 5800 5798 5796 5794
5815 5821 5829 5837 5841 5846 5851 5855 5859 5863 5866 5867 5870 5872 5872 5873 5873 5872 5871 5868 5865 5863 5861 5858 5855 5852 5849 5845 5842 5839 5837 5834 5831 5829 5827 5823 5820 5816 5812 5810 5807 5804 5802 5799 5797 5794 5792 5790 5787
5811 5816 5825 5833 5837 5842 5847 5851 5856 5860 5862 5865 5866 5867 5868 5868 5868 5868 5867 5865 5862 5859 5855 5852 5849 5846 5842 5838 5835 5831 5828 5825 5822 5820 5819 5816 5812 5808 5806 5803 5800 5799 5796 5793 5791 5788 5786 5784 5782
5806 5813 5821 5828 5833 5838 5843 5848 5852 5856 5858 5861 5863 5863 5864 5864 5863 5862 5860 5859 5857 5853 5850 5847 5843 5839 5835 5831 5827 5822 5817 5814 5813 5813 5811 5808 5804 5801 5798 5797 5795 5793 5790 5788 5786 5783 5781 5779 5777
5803 5810 5817 5824 5829 5834 5840 5845 5849 5851 5854 5856 5859 5859 5859 5859 5858 5856 5854 5851 5849 5846 5843 5840 5836 5832 5827 5822 5815 5811 5806 5804 5805 5806 5803 5800 5797 5795 5793 5792 5789 5787 5785 5782 5781 5779 5777 5775 5773
5800 5806 5813 5820 5826 5831 5837 5842 5845 5847 5850 5851 5853 5854 5855 5854 5853 5851 5848 5846 5842 5839 5836 5833 5829 5824 5817 5810 5802 5796 5793 5793 5795 5796 5796 5793 5791 5789 5788 5787 5785 5782 5781 5779 5777 5775 5773 5770 5768
5798 5804 5811 5817 5824 5828 5833 5838 5841 5842 5845 5847 5848 5848 5848 5848 5846 5846 5843 5839 5836 5834 5831 5828 5822 5816 5809 5801 5793 5786 5783 5784 5787 5790 5790 5788 5786 5785 5783 5781 5779 5778 5776 5774 5771 5769 5767 5765 5762
5796 5804 5810 5815 5820 5825 5830 5833 5834 5838 5841 5842 5842 5843 5843 5842 5840 5838 5835 5832 5829 5826 5823 5820 5815 5810 5803 5797 5790 5785 5782 5781 5782 5784 5784 5783 5782 5780 5779 5777 5775 5773 5771 5769 5766 5763 5761 5760 5757
5796 5802 5807 5812 5817 5822 5826 5827 5831 5834 5836 5836 5837 5838 5837 5836 5834 5832 5828 5825 5823 5820 5817 5814 5810 5805 5800 5795 5790 5785 5782 5781 5780 5780 5780 5779 5777 5776 5774 5773 5771 5769 5767 5764 5762 5759 5756 5753 5750
5794 5799 5804 5809 5813 5817 5821 5823 5826 5829 5830 5831 5831 5831 5830 5828 5826 5824 5822 5819 5817 5815 5813 5810 5806 5802 5798 5794 5789 5785 5782 5780 5779 5778 5777 5775 5774 5772 5770 5768 5766 5763 5761 5758 5755 5752 5749 5745 5743
5792 5797 5802 5806 5810 5813 5816 5819 5821 5823 5825 5826 5825 5823 5823 5821 5820 5818 5815 5812 5811 5808 5807 5804 5800 5798 5795 5791 5787 5784 5781 5779 5777 5776 5774 5772 5770 5768 5766 5763 5759 5756 5753 5750 5747 5743 5741 5738 5734
5790 5795 5799 5802 5805 5809 5811 5813 5817 5818 5819 5818 5817 5817 5816 5814 5812 5810 5807 5806 5803 5800 5799 5797 5795 5792 5790 5787 5784 5781 5778 5776 5773 5771 5769 5767 5764 5761 5758 5756 5753 5750 5747 5743 5740 5737 5733 5730 5726
5788 5793 5796 5798 5801 5803 5805 5808 5811 5812 5811 5810 5810 5809 5808 5806 5804 5802 5800 5798 5796 5794 5792 5790 5789 5787 5785 5782 5779 5777 5774 5771 5768 5766 5763 5761 5758 5755 5751 5748 5745 5741 5738 5734 5730 5727 5723 5720 5716
5786 5789 5792 5795 5796 5799 5800 5801 5805 5805 5804 5803 5803 5802 5800 5798 5796 5795 5793 5791 5790 5788 5786 5785 5783 5781 5779 5776 5773 5771 5768 5765 5762 5759 5756 5753 5750 5747 5743 5739 5736 5732 5728 5724 5721 5717 5713 5709 5705
5783 5786 5788 5789 5791 5794 5794 5795 5797 5797 5797 5797 5796 5795 5793 5791 5789 5788 5786 5785 5783 5782 5781 5779 5778 5775 5773 5771 5767 5764 5761 5758 5754 5752 5749 5745 5742 5738 5734 5731 5727 5723 5719 5715 5711 5706 5702 5697 5693
5780 5782 5784 5785 5786 5787 5789 5790 5791 5790 5790 5789 5788 5787 5785 5784 5782 5781 5780 5778 5777 5777 5775 5773 5771 5768 5766 5764 5761 5757 5753 5750 5746 5743 5740 5736 5733 5729 5725 5721 5717 5713 5708 5704 5700 5696 5691 5687 5681
5776 5779 5780 5780 5781 5782 5783 5784 5784 5784 5783 5782 5782 5781 5778 5777 5776 5775 5773 5773 5773 5772 5770 5767 5765 5762 5759 5755 5752 5748 5744 5741 5737 5733 5729 5725 5721 5717 5714 5710 5706 5701 5697 5693 5689 5684 5678 5673 5668
5773 5774 5775 5776 5777 5776 5777 5779 5777 5777 5777 5776 5775 5774 5771 5769 5769 5769 5768 5768 5766 5764 5762 5759 5758 5754 5751 5747 5743 5739 5735 5731 5727 5723 5719 5714 5710 5706 5702 5698 5693 5689 5684 5680 5675 5670 5664 5659 5652
5769 5770 5771 5770 5772 5770 5770 5773 5770 5771 5770 5769 5768 5767 5765 5764 5764 5763 5763 5761 5758 5756 5754 5751 5748 5745 5742 5738 5734 5729 5724 5720 5716 5712 5707 5702 5698 5693 5689 5685 5680 5676 5671 5665 5661 5655 5649 5643 5636